{"data":{"norad_id":39469,"intl_designator":"2013-072H","name":"SMDC ONE 2.4","alt_names":[],"object_type":"PAYLOAD","status":"ACTIVE","operator":null,"country":"US","launch_date":"2013-12-06","launch_site_code":"AFWTR","launch_vehicle":null,"mission":null,"orbit_class":"UNKNOWN","rcs_meters":null,"size_class":null,"mass_kg":null,"dimensions":null,"purposes":[],"wikipedia_slug":null,"has_3d_model":false,"image_url":null,"decayed_at":null,"tle_current":{"epoch":"2026-05-25T03:34:30.086112Z","epoch_age_seconds":62969,"freshness":"FRESH","line1":"1 39469U 13072H   26145.14895933  .00009088  00000+0  35928-3 0  9998","line2":"2 39469 120.4893 263.1710 0141909 354.2785   5.6668 15.17682606114333","mean_motion":15.17682606,"eccentricity":0.0141909,"inclination_deg":120.4893,"raan_deg":263.171,"arg_perigee_deg":354.2785,"mean_anomaly_deg":5.6668,"bstar":0.00035928,"rev_number":11433,"period_min":94.881498562816,"perigee_km":415.05713995836,"apogee_km":610.63565251366,"semimajor_km":6890.983396236,"source":"CELESTRAK","updated_at":"2026-05-25T13:37:55.405652Z"}}}